| time (UTC) | temp F | wind direction | speed MPH | gust MPH | rain 1hr in | rain 24hr in | rain mn in | humidity % | barometer mb |
| 20260508061504 | 74 | 13 | 0.0 | 0.0 | 0.00 | 0.01 | 0.00 | 81 | 1013.4 |
| 20260508060009 | 74 | 42 | 0.0 | 0.0 | 0.00 | 0.01 | 0.00 | 80 | 1013.6 |
| 20260508054511 | 73 | 328 | 0.0 | 0.0 | 0.00 | 0.01 | 0.00 | 80 | 1013.4 |
| 20260508053014 | 73 | 61 | 0.0 | 0.0 | 0.00 | 0.01 | 0.00 | 80 | 1012.9 |
| 20260508051512 | 73 | 25 | 0.0 | 0.0 | 0.00 | 0.01 | 0.00 | 80 | 1013.2 |
| 20260508050006 | 73 | 45 | 0.0 | 0.0 | 0.00 | 0.01 | 0.00 | 80 | 1013.0 |
| 20260508044506 | 74 | 27 | 0.0 | 3.0 | 0.00 | 0.01 | 0.01 | 80 | 1013.1 |
| 20260508043012 | 74 | 53 | 0.0 | 0.0 | 0.00 | 0.01 | 0.01 | 79 | 1013.0 |
| 20260508041514 | 74 | 75 | 0.0 | 0.0 | 0.00 | 0.01 | 0.01 | 79 | 1013.8 |
| 20260508040010 | 74 | 57 | 0.0 | 0.0 | 0.00 | 0.01 | 0.01 | 78 | 1014.2 |
| 20260508034503 | 74 | 52 | 0.0 | 0.0 | 0.00 | 0.01 | 0.01 | 77 | 1014.3 |
| 20260508033006 | 74 | 75 | 0.0 | 0.0 | 0.00 | 0.01 | 0.01 | 77 | 1014.2 |
| 20260508031512 | 74 | 120 | 0.0 | 0.0 | 0.00 | 0.01 | 0.01 | 76 | 1014.1 |
| 20260508030022 | 74 | 25 | 0.0 | 0.0 | 0.00 | 0.01 | 0.01 | 76 | 1013.9 |
| 20260508024512 | 75 | 13 | 0.0 | 3.0 | 0.00 | 0.01 | 0.01 | 75 | 1013.9 |
| 20260508023004 | 75 | 32 | 0.0 | 0.0 | 0.00 | 0.01 | 0.01 | 75 | 1013.8 |
| 20260508021512 | 75 | 32 | 0.0 | 1.0 | 0.00 | 0.01 | 0.01 | 75 | 1014.0 |
| 20260508020023 | 75 | 11 | 0.0 | 2.0 | 0.00 | 0.01 | 0.01 | 75 | 1013.7 |
| 20260508014514 | 75 | 319 | 0.0 | 1.0 | 0.00 | 0.01 | 0.01 | 76 | 1014.0 |
| 20260508013016 | 75 | 266 | 0.0 | 1.0 | 0.00 | 0.01 | 0.01 | 76 | 1014.0 |
| 20260508011511 | 75 | 249 | 0.0 | 0.0 | 0.00 | 0.01 | 0.01 | 76 | 1013.8 |
| 20260508010009 | 76 | 1 | 0.0 | 1.0 | 0.00 | 0.01 | 0.01 | 76 | 1013.6 |
| 20260508004517 | 76 | 23 | 0.0 | 2.0 | 0.00 | 0.01 | 0.01 | 76 | 1013.5 |
| 20260508003017 | 76 | 62 | 0.0 | 0.0 | 0.00 | 0.01 | 0.01 | 75 | 1013.4 |
| 20260508001516 | 77 | 6 | 0.0 | 0.0 | 0.00 | 0.01 | 0.01 | 74 | 1013.6 |
| 20260508000007 | 77 | 32 | 0.0 | 0.0 | 0.00 | 0.01 | 0.01 | 74 | 1013.5 |
| 20260507234513 | 77 | 5 | 0.0 | 0.0 | 0.00 | 0.01 | 0.01 | 73 | 1013.1 |
| 20260507233030 | 78 | 35 | 0.0 | 0.0 | 0.00 | 0.01 | 0.01 | 72 | 1013.1 |
| 20260507231517 | 78 | 41 | 0.0 | 0.0 | 0.00 | 0.01 | 0.01 | 72 | 1013.2 |
| 20260507230018 | 79 | 51 | 0.0 | 0.0 | 0.00 | 0.01 | 0.01 | 71 | 1013.3 |
| 20260507224508 | 80 | 6 | 0.0 | 0.0 | 0.00 | 0.01 | 0.01 | 69 | 1013.2 |
| 20260507223017 | 80 | 75 | 0.0 | 0.0 | 0.00 | 0.01 | 0.01 | 68 | 1013.2 |
| 20260507221524 | 80 | 13 | 0.0 | 0.0 | 0.00 | 0.01 | 0.01 | 69 | 1013.2 |
| 20260507220018 | 80 | 356 | 0.0 | 0.0 | 0.00 | 0.01 | 0.01 | 68 | 1013.3 |
| 20260507214523 | 80 | 269 | 0.0 | 0.0 | 0.00 | 0.01 | 0.01 | 69 | 1013.2 |
| 20260507213016 | 79 | 32 | 0.0 | 0.0 | 0.00 | 0.01 | 0.01 | 70 | 1013.3 |
| 20260507211517 | 78 | 256 | 0.0 | 0.0 | 0.00 | 0.01 | 0.01 | 70 | 1013.6 |
| 20260507210020 | 79 | 336 | 0.0 | 0.0 | 0.00 | 0.01 | 0.01 | 68 | 1013.7 |
| 20260507204522 | 79 | 84 | 0.0 | 0.0 | 0.00 | 0.01 | 0.01 | 68 | 1014.0 |
| 20260507203020 | 78 | 333 | 2.0 | 5.0 | 0.00 | 0.01 | 0.01 | 70 | 1014.0 |
| 20260507201516 | 77 | 288 | 0.0 | 0.0 | 0.00 | 0.01 | 0.01 | 71 | 1014.2 |
| 20260507200018 | 76 | 17 | 0.0 | 6.0 | 0.00 | 0.01 | 0.01 | 71 | 1014.6 |
| 20260507194522 | 77 | 3 | 0.0 | 1.0 | 0.00 | 0.01 | 0.01 | 70 | 1014.5 |
| 20260507193028 | 77 | 346 | 0.0 | 0.0 | 0.00 | 0.01 | 0.01 | 70 | 1014.7 |
| 20260507191531 | 77 | 198 | 0.0 | 0.0 | 0.00 | 0.01 | 0.01 | 69 | 1014.9 |
| 20260507190013 | 75 | 274 | 0.0 | 6.0 | 0.00 | 0.01 | 0.01 | 72 | 1015.1 |
| 20260507184528 | 74 | 316 | 0.0 | 3.0 | 0.00 | 0.01 | 0.01 | 73 | 1015.2 |
| 20260507183036 | 73 | 47 | 0.0 | 0.0 | 0.00 | 0.01 | 0.01 | 74 | 1015.4 |
| 20260507181523 | 72 | 27 | 0.0 | 0.0 | 0.01 | 0.01 | 0.01 | 75 | 1015.4 |
| 20260507180029 | 71 | 95 | 0.0 | 2.0 | 0.01 | 0.01 | 0.01 | 76 | 1015.6 |
| 20260507174518 | 70 | 255 | 1.0 | 4.0 | 0.01 | 0.01 | 0.01 | 77 | 1015.7 |
| 20260507173035 | 69 | 330 | 0.0 | 5.0 | 0.01 | 0.01 | 0.01 | 78 | 1016.0 |
| 20260507171538 | 68 | 67 | 0.0 | 4.0 | 0.00 | 0.00 | 0.00 | 79 | 1016.1 |
| 20260507170012 | 68 | 186 | 0.0 | 0.0 | 0.00 | 0.00 | 0.00 | 79 | 1016.1 |
| 20260507164514 | 67 | 236 | 0.0 | 0.0 | 0.00 | 0.00 | 0.00 | 79 | 1015.9 |
| 20260507163019 | 66 | 25 | 0.0 | 5.0 | 0.00 | 0.00 | 0.00 | 80 | 1016.0 |
| 20260507161527 | 65 | 217 | 0.0 | 0.0 | 0.00 | 0.00 | 0.00 | 81 | 1016.0 |
| 20260507160024 | 65 | 57 | 0.0 | 0.0 | 0.00 | 0.00 | 0.00 | 82 | 1015.8 |
| 20260507154509 | 64 | 15 | 0.0 | 0.0 | 0.00 | 0.00 | 0.00 | 82 | 1016.2 |
| 20260507153014 | 64 | 330 | 0.0 | 0.0 | 0.00 | 0.00 | 0.00 | 82 | 1016.1 |
| 20260507151522 | 65 | 214 | 0.0 | 3.0 | 0.00 | 0.00 | 0.00 | 82 | 1015.9 |
| 20260507150024 | 65 | 13 | 0.0 | 3.0 | 0.00 | 0.00 | 0.00 | 82 | 1015.8 |
| 20260507144531 | 65 | 311 | 1.0 | 5.0 | 0.00 | 0.00 | 0.00 | 82 | 1015.7 |
| 20260507143019 | 66 | 319 | 0.0 | 7.0 | 0.00 | 0.00 | 0.00 | 82 | 1015.5 |
| 20260507141523 | 66 | 194 | 0.0 | 9.0 | 0.00 | 0.00 | 0.00 | 82 | 1015.5 |
| 20260507140023 | 65 | 15 | 0.0 | 3.0 | 0.00 | 0.00 | 0.00 | 82 | 1015.1 |
| 20260507134528 | 65 | 358 | 0.0 | 3.0 | 0.00 | 0.00 | 0.00 | 82 | 1015.8 |
| 20260507133029 | 64 | 9 | 0.0 | 7.0 | 0.00 | 0.00 | 0.00 | 82 | 1015.7 |
| 20260507131531 | 0 | 0.0 | 0.0 | 0.00 | 0.00 | 0.00 | 1015.6 | ||
| 20260507130027 | 0 | 0.0 | 0.0 | 0.00 | 0.00 | 0.00 | 1015.4 | ||
| 20260507124529 | 0 | 0.0 | 0.0 | 0.00 | 0.00 | 0.00 | 1015.0 | ||
| 20260507123033 | 0 | 0.0 | 0.0 | 0.00 | 0.00 | 0.00 | 1014.6 | ||
| 20260507121528 | 0 | 0.0 | 0.0 | 0.00 | 0.00 | 0.00 | 1014.3 | ||
| 20260507120039 | 0 | 0.0 | 0.0 | 0.00 | 0.00 | 0.00 | 1014.2 | ||
| 20260507114527 | 0 | 0.0 | 0.0 | 0.00 | 0.00 | 0.00 | 1014.1 | ||
| 20260507113039 | 0 | 0.0 | 0.0 | 0.00 | 0.00 | 0.00 | 1013.7 | ||
| 20260507111530 | 0 | 0.0 | 0.0 | 0.00 | 0.00 | 0.00 | 1013.5 | ||
| 20260507110031 | 0 | 0.0 | 0.0 | 0.00 | 0.00 | 0.00 | 1013.7 | ||
| 20260507104528 | 0 | 0.0 | 0.0 | 0.00 | 0.00 | 0.00 | 1013.4 | ||
| 20260507103030 | 0 | 0.0 | 0.0 | 0.00 | 0.00 | 0.00 | 1013.5 | ||
| 20260507101528 | 0 | 0.0 | 0.0 | 0.00 | 0.00 | 0.00 | 1013.2 | ||
| 20260507100035 | 0 | 0.0 | 0.0 | 0.00 | 0.00 | 0.00 | 1013.0 | ||
| 20260507094527 | 0 | 0.0 | 0.0 | 0.00 | 0.00 | 0.00 | 1012.9 | ||
| 20260507093027 | 68 | 352 | 2.0 | 5.0 | 0.00 | 0.00 | 0.00 | 81 | 1012.9 |
| 20260507091526 | 69 | 305 | 0.0 | 0.0 | 0.00 | 0.00 | 0.00 | 82 | 1012.9 |
| 20260507090026 | 70 | 98 | 0.0 | 3.0 | 0.00 | 0.00 | 0.00 | 82 | 1012.8 |
| 20260507084531 | 70 | 276 | 0.0 | 3.0 | 0.00 | 0.00 | 0.00 | 82 | 1012.5 |
| 20260507083019 | 70 | 7 | 0.0 | 0.0 | 0.00 | 0.00 | 0.00 | 82 | 1012.3 |
| 20260507081532 | 70 | 75 | 0.0 | 0.0 | 0.00 | 0.00 | 0.00 | 82 | 1012.5 |
| 20260507080007 | 70 | 285 | 0.0 | 2.0 | 0.00 | 0.00 | 0.00 | 82 | 1012.6 |
| 20260507074525 | 70 | 76 | 0.0 | 0.0 | 0.00 | 0.00 | 0.00 | 81 | 1012.8 |
| 20260507073020 | 71 | 42 | 0.0 | 0.0 | 0.00 | 0.00 | 0.00 | 81 | 1012.7 |
| 20260507071528 | 71 | 302 | 0.0 | 6.0 | 0.00 | 0.00 | 0.00 | 81 | 1012.8 |
| 20260507070011 | 71 | 302 | 0.0 | 0.0 | 0.00 | 0.00 | 0.00 | 81 | 1013.0 |
| 20260507064510 | 72 | 246 | 0.0 | 0.0 | 0.00 | 0.00 | 0.00 | 81 | 1012.8 |
| 20260507063017 | 72 | 267 | 0.0 | 0.0 | 0.00 | 0.00 | 0.00 | 81 | 1012.8 |